Starlink 11334

decayed
NORAD ID: 61250 Int'l Des: 2024-175 Owner: SPXS Country: US Constellation: starlink
LEOCIRCULAR
グループ

Starlink 11334について

説明を読み込み中...

高度履歴

Altitude vs Time

uPlot chart will show altitude changes over time

軌道要素

1 61250U 24175H 25278.88851433 .04785592 11825-4 22153-2 0 9993
2 61250 53.1333 92.6701 0004994 246.7301 113.3213 16.21048007 59140
Epoch: Oct 5, 2025 • Age: 719 hours

現在のステータス

Position data unavailable
打ち上げ日 Sep 25, 2024
運用期間 1.1 years
落下予定日 Oct 6, 2025
タイプ internet

技術仕様

分類 Payload
質量 960.00 kg
乾燥質量 910.00 kg
総質量 960.00 kg
長さ 0.30 m
直径 4.10 m
スパン 29.00 m
形状 Box + pan
製造者 SPXS
バスタイプ Starlink V2MD
フェーズステータス Unknown Transfer Status
所有者/国 SPXS/US

大規模コンステレーション

Loading constellations...